Location: Asheville, NC
(35.6000°N, 82.5500°W)
Time: 01:30:05
(UTC-05:00)

Vanguard 1 Rocket - Pass Details

Date: 11 February 2018
Orbit: 655 x 4222 km, 34.3° (Epoch: 23 February)

Event Time Altitude Azimuth Distance (km) Brightness Sun altitude
Rises 09:12:45 0° 286° (WNW) 7,039 11.4 19.6°
Reaches altitude 10° 09:19:43 10° 273° (W) 5,293 10.9 20.8°
Maximum altitude 09:28:43 20° 233° (SW) 3,448 10.3 22.2°
Drops below altitude 10° 09:34:50 10° 189° (S) 3,408 10.8 23.2°
Sets 09:38:04 0° 171° (S) 3,965 11.4 23.7°
